Weather History for Gustavus, AK

Change the Weather History Date:

Monday, October 8, 2012

  Actual Average Record
Temperature  
Mean Temperature 48 °F -  
Max Temperature 55 °F 50 °F 57 °F (1984)
Min Temperature 42 °F 39 °F 24 °F (1957)
Degree Days  
Heating Degree Days 16    
Moisture  
Dew Point 42 °F    
Average Humidity 80    
Maximum Humidity 93    
Minimum Humidity 63    
Precipitation  
Precipitation 0.00 in - - ()
Sea Level Pressure  
Sea Level Pressure 30.16 in    
Wind  
Wind Speed 2 mph (NW)    
Max Wind Speed 7 mph    
Max Gust Speed -    
Visibility 10 miles    
Events      
Averages and records for this station are not official NWS values.
T = Trace of Precipitation, MM = Missing Value Source: NWS Daily Summary

Daily Weather History Graph

Daily Weather History Graph

Search for Another Location

Airport:

Trip Planner

Search our weather history database for the weather conditions in past years. The results will help you decide how hot, cold, wet, or windy it might be!

Date:

Astronomy

Oct. 08, 2012 Rise Set
Actual Time 7:24 AM AKDT 6:14 PM AKDT
Civil Twilight 6:44 AM AKDT 6:54 PM AKDT
Nautical Twilight 5:58 AM AKDT 7:40 PM AKDT
Astronomical Twilight 5:11 AM AKDT 8:27 PM AKDT
Moon 11:53 PM AKDT (10/8) 3:29 PM AKDT (10/8)
Length of Visible Light 12h 09m
Length of Day
10h 50m
Last Quarter, 45% of the Moon is Illuminated
Oct 8
Last Quarter
Oct 15
New
Oct 21
First Quarter
Oct 29
Full
Nov 6
Last Quarter

Hourly Weather History & Observations

Time (AKDT) Temp. Windchill Dew Point Humidity Pressure Visibility Wind Dir Wind Speed Gust Speed Precip Events Conditions
12:16 AM 42.8 °F - 39.2 °F 87% 30.22 in 10.0 mi Calm Calm - N/A   Overcast
12:36 AM - - - N/A% 30.21 in 10.0 mi Calm Calm - N/A   Overcast
12:56 AM 44.6 °F - 39.2 °F 81% 30.22 in 10.0 mi Calm Calm - N/A   Overcast
1:16 AM 44.6 °F - 39.2 °F 81% 30.22 in 10.0 mi Calm Calm - N/A   Overcast
1:36 AM 44.6 °F - 39.2 °F 81% 30.22 in 10.0 mi Calm Calm - N/A   Overcast
1:56 AM 44.6 °F - 39.2 °F 81% 30.22 in 10.0 mi Calm Calm - N/A   Overcast
2:16 AM 44.6 °F - 39.2 °F 81% 30.21 in 10.0 mi Calm Calm - N/A   Overcast
2:36 AM 44.6 °F - 39.2 °F 81% 30.21 in 10.0 mi Calm Calm - N/A   Overcast
2:56 AM 44.6 °F - 39.2 °F 81% 30.21 in 10.0 mi Calm Calm - N/A   Overcast
3:16 AM 42.8 °F - 39.2 °F 87% 30.21 in 10.0 mi Calm Calm - N/A   Overcast
3:56 AM 44.6 °F - 39.2 °F 81% 30.21 in 10.0 mi Calm Calm - N/A   Overcast
4:16 AM 44.6 °F - 39.2 °F 81% 30.20 in 10.0 mi Calm Calm - N/A   Overcast
4:36 AM 44.6 °F - 39.2 °F 81% 30.20 in 10.0 mi Calm Calm - N/A   Overcast
4:56 AM 44.6 °F - 39.2 °F 81% 30.20 in 10.0 mi Calm Calm - N/A   Overcast
5:16 AM 44.6 °F - 41.0 °F 87% 30.20 in 10.0 mi Calm Calm - N/A   Overcast
5:36 AM 44.6 °F - 41.0 °F 87% 30.19 in 10.0 mi Calm Calm - N/A   Overcast
5:56 AM 44.6 °F - 39.2 °F 81% 30.19 in 10.0 mi Calm Calm - N/A   Overcast
6:16 AM 44.6 °F - 39.2 °F 81% 30.19 in 10.0 mi Calm Calm - N/A   Overcast
6:36 AM 44.6 °F 41.4 °F 39.2 °F 81% 30.19 in 10.0 mi NNW 5.8 mph - N/A   Overcast
6:56 AM 44.6 °F 42.2 °F 39.2 °F 81% 30.19 in 10.0 mi NNW 4.6 mph - N/A   Overcast
7:16 AM 44.6 °F 43.1 °F 41.0 °F 87% 30.19 in 10.0 mi WNW 3.5 mph - N/A   Overcast
7:36 AM 44.6 °F 42.2 °F 41.0 °F 87% 30.19 in 10.0 mi NNW 4.6 mph - N/A   Overcast
7:56 AM 44.6 °F - 41.0 °F 87% 30.19 in 10.0 mi Calm Calm - N/A   Overcast
8:16 AM 44.6 °F - 41.0 °F 87% 30.19 in 10.0 mi Calm Calm - N/A   Overcast
8:36 AM 46.4 °F 45.2 °F 42.8 °F 87% 30.19 in 10.0 mi WNW 3.5 mph - N/A   Overcast
8:56 AM 46.4 °F 44.3 °F 42.8 °F 87% 30.19 in 10.0 mi NW 4.6 mph - N/A   Overcast
9:16 AM 46.4 °F 43.5 °F 42.8 °F 87% 30.19 in 10.0 mi NNW 5.8 mph - N/A   Overcast
9:36 AM 46.4 °F 42.9 °F 42.8 °F 87% 30.19 in 10.0 mi NNW 6.9 mph - N/A   Overcast
9:56 AM 48.2 °F - 42.8 °F 82% 30.18 in 10.0 mi NW 5.8 mph - N/A   Overcast
10:16 AM 48.2 °F - 42.8 °F 82% 30.18 in 10.0 mi NNW 4.6 mph - N/A   Overcast
10:36 AM 48.2 °F - 44.6 °F 87% 30.19 in 10.0 mi NNW 4.6 mph - N/A   Mostly Cloudy
10:56 AM 51.8 °F - 44.6 °F 76% 30.18 in 10.0 mi NW 3.5 mph - N/A   Scattered Clouds
11:16 AM - - - N/A% 30.17 in 10.0 mi Calm Calm - N/A   Scattered Clouds
11:36 AM - - - N/A% 30.17 in 10.0 mi Calm Calm - N/A   Clear
11:56 AM - - - N/A% 30.17 in 10.0 mi WNW 4.6 mph - N/A   Scattered Clouds
12:16 PM 53.6 °F - 44.6 °F 72% 30.16 in 10.0 mi West 4.6 mph - N/A   Mostly Cloudy
12:36 PM 53.6 °F - 44.6 °F 72% 30.15 in 10.0 mi WNW 5.8 mph - N/A   Mostly Cloudy
12:56 PM 53.6 °F - 44.6 °F 72% 30.15 in 10.0 mi West 6.9 mph - N/A   Partly Cloudy
1:16 PM 53.6 °F - 44.6 °F 72% 30.15 in 10.0 mi West 6.9 mph - N/A   Scattered Clouds
1:36 PM 55.4 °F - 44.6 °F 67% 30.14 in 10.0 mi WNW 6.9 mph - N/A   Overcast
1:56 PM 53.6 °F - 44.6 °F 72% 30.15 in 10.0 mi NW 4.6 mph - N/A   Overcast
2:16 PM 53.6 °F - 42.8 °F 67% 30.14 in 10.0 mi NNW 6.9 mph - N/A   Overcast
2:36 PM 55.4 °F - 44.6 °F 67% 30.14 in 10.0 mi NNW 6.9 mph - N/A   Overcast
2:56 PM 55.4 °F - 42.8 °F 63% 30.14 in 10.0 mi West 5.8 mph - N/A   Mostly Cloudy
3:16 PM 53.6 °F - 42.8 °F 67% 30.13 in 10.0 mi NW 6.9 mph - N/A   Mostly Cloudy
3:36 PM 53.6 °F - 42.8 °F 67% 30.13 in 10.0 mi WNW 6.9 mph - N/A   Mostly Cloudy
3:56 PM 53.6 °F - 42.8 °F 67% 30.13 in 10.0 mi West 4.6 mph - N/A   Mostly Cloudy
4:36 PM 51.8 °F - 42.8 °F 71% 30.12 in 10.0 mi NW 4.6 mph - N/A   Mostly Cloudy
4:56 PM 51.8 °F - 42.8 °F 71% 30.12 in 10.0 mi NW 4.6 mph - N/A   Mostly Cloudy
5:16 PM 51.8 °F - 42.8 °F 71% 30.11 in 10.0 mi Calm Calm - N/A   Overcast
5:56 PM 50.0 °F - 42.8 °F 76% 30.11 in 10.0 mi NNW 3.5 mph - N/A   Mostly Cloudy
6:16 PM 50.0 °F - 42.8 °F 76% 30.11 in 10.0 mi Calm Calm - N/A   Mostly Cloudy
6:36 PM 48.2 °F - 42.8 °F 82% 30.11 in 10.0 mi Calm Calm - N/A   Scattered Clouds
6:56 PM 48.2 °F - 42.8 °F 82% 30.11 in 10.0 mi Calm Calm - N/A   Scattered Clouds
7:16 PM 46.4 °F - 42.8 °F 87% 30.11 in 10.0 mi Calm Calm - N/A   Mostly Cloudy
7:36 PM 46.4 °F - 41.0 °F 81% 30.10 in 10.0 mi Calm Calm - N/A   Overcast
7:56 PM 46.4 °F - 41.0 °F 81% 30.10 in 10.0 mi Calm Calm - N/A   Overcast
8:16 PM 46.4 °F - 42.8 °F 87% 30.10 in 10.0 mi Calm Calm - N/A   Overcast
8:36 PM 46.4 °F - 42.8 °F 87% 30.11 in 10.0 mi Calm Calm - N/A   Mostly Cloudy
8:56 PM 46.4 °F - 41.0 °F 81% 30.10 in 10.0 mi Calm Calm - N/A   Mostly Cloudy
9:16 PM 44.6 °F 43.1 °F 39.2 °F 81% 30.11 in 10.0 mi NNE 3.5 mph - N/A   Mostly Cloudy
9:36 PM 44.6 °F - 41.0 °F 87% 30.11 in 10.0 mi Calm Calm - N/A   Overcast
9:56 PM 44.6 °F - 41.0 °F 87% 30.11 in 10.0 mi Calm Calm - N/A   Overcast
10:16 PM 46.4 °F - 41.0 °F 81% 30.11 in 7.0 mi Calm Calm - N/A   Overcast
10:36 PM 46.4 °F - 42.8 °F 87% 30.11 in 9.0 mi Calm Calm - N/A   Overcast
10:56 PM 46.4 °F 44.3 °F 41.0 °F 81% 30.10 in 10.0 mi North 4.6 mph - N/A   Overcast
11:16 PM 44.6 °F - 42.8 °F 93% 30.10 in 10.0 mi Calm Calm - N/A   Overcast
11:36 PM 44.6 °F 43.1 °F 41.0 °F 87% 30.10 in 10.0 mi WSW 3.5 mph - N/A   Overcast
11:56 PM 44.6 °F 42.2 °F 41.0 °F 87% 30.09 in 10.0 mi North 4.6 mph - N/A   Overcast